1427637030243,0.000178645
1427637090243,0.000178137
1427637150243,0.000175595
1427637210243,0.000178452
1427637270243,0.000175268
1427637330243,0.000175381
1427637390243,0.000176474
1427637450243,0.000177867
1427637510243,0.000179799
1427637570243,0.000178802
1427637630243,0.000177273
1427637690243,0.000177367
1427637750243,0.000176573
1427637810243,0.000178386
1427637870243,0.000176158
1427637930243,0.000176615
1427637990243,0.000174998
1427638050243,0.000175322
1427638110243,0.000173098
1427638170243,0.000175180
1427638230243,0.000174523
1427638290243,0.000174161
1427638350243,0.000176576
1427638410243,0.000175603
1427638470243,0.000179271
1427638530243,0.000179328
1427638590243,0.000178586
1427638650243,0.000180767
1427638710243,0.000177877
1427638770243,0.000177347
1427638830243,0.000176671
1427638890243,0.000175878
1427638950243,0.000177366
1427639010243,0.000176190
1427639070243,0.000173367
1427639130243,0.000173818
1427639190243,0.000174821
1427639250243,0.000176039
1427639310243,0.000174860
1427639370243,0.000174472
1427639430243,0.000174228
1427639490243,0.000174569
1427639550243,0.000175451
1427639610243,0.000175587
1427639670243,0.000173441
1427639730243,0.000172686
1427639790243,0.000173562
1427639850243,0.000173638
1427639910243,0.000174177
1427639970243,0.000174576
1427640030243,0.000175136
1427640090243,0.000175853
1427640150243,0.000174379
1427640210243,0.000174076
1427640270243,0.000175407
1427640330243,0.000175849
1427640390243,0.000174367
1427640450243,0.000172868
1427640510243,0.000174274
1427640570243,0.000176605
1427640630243,0.000175824
1427640690243,0.000174253
1427640750243,0.000175280
1427640810243,0.000176427
1427640870243,0.000175867
1427640930243,0.000176710
1427640990243,0.000175714
1427641050243,0.000177038
1427641110243,0.000178727
1427641170243,0.000188215
1427641230245,0.000178355
1427641290245,0.000178620
1427641350245,0.000179949
1427641410245,0.000179676
1427641470245,0.000181104
1427641530245,0.000179435
1427641590245,0.000179677
1427641650245,0.000178137
1427641710245,0.000180492
1427641770245,0.000176788
1427641830245,0.000176116
1427641890245,0.000177825
1427641950245,0.000177520
1427642010245,0.000177752
1427642070245,0.000177865
1427642130245,0.000176562
1427642190245,0.000177802
1427642250245,0.000178099
1427642310245,0.000177687
1427642370245,0.000181300
1427642430245,0.000178216
1427642490245,0.000178213
1427642550245,0.000178706
1427642610245,0.000180916
1427642670245,0.000181081
1427642730245,0.000181102
1427642790245,0.000181358
1427642850245,0.000180654
1427642910245,0.000179415
1427642970245,0.000179329
1427643030245,0.000176620
1427643090245,0.000178330
1427643150245,0.000176581
1427643210245,0.000175940
1427643270245,0.000177641
1427643330245,0.000177750
1427643390245,0.000176579
1427643450245,0.000176350
1427643510245,0.000176946
1427643570245,0.000177375
1427643630245,0.000175620
1427643690245,0.000176294
1427643750245,0.000178945
1427643810245,0.000177119
1427643870245,0.000174854
1427643930245,0.000177009
1427643990245,0.000177998
1427644050245,0.000174912
1427644110245,0.000177304
1427644170245,0.000175449
1427644230245,0.000178250
1427644290245,0.000175769
1427644350245,0.000176959
1427644410245,0.000179819
1427644470245,0.000176603
1427644530245,0.000178751
1427644590245,0.000175829
1427644650245,0.000173870
1427644710245,0.000175655
1427644770245,0.000176327
1427644830247,0.000173479
1427644890247,0.000175313
1427644950247,0.000173684
1427645010247,0.000176245
1427645070247,0.000177539
1427645130247,0.000174479
1427645190247,0.000174104
1427645250247,0.000177063
1427645310247,0.000176049
1427645370247,0.000174110
1427645430247,0.000173004
1427645490247,0.000174310
1427645550247,0.000176438
1427645610247,0.000174804
1427645670247,0.000173623
1427645730247,0.000175566
1427645790247,0.000174637
1427645850247,0.000176501
1427645910247,0.000174154
1427645970247,0.000175000
1427646030247,0.000173858
1427646090247,0.000175819
1427646150247,0.000175200
1427646210247,0.000174944
1427646270247,0.000173033
1427646330247,0.000173735
1427646390247,0.000172329
1427646450247,0.000173106
1427646510247,0.000172609
1427646570247,0.000173698
1427646630247,0.000175271
1427646690247,0.000174418
1427646750247,0.000173624
1427646810247,0.000176071
1427646870247,0.000176596
1427646930247,0.000171174
1427646990247,0.000176325
1427647050247,0.000173203
1427647110247,0.000175212
1427647170247,0.000174778
1427647230247,0.000173784
1427647290247,0.000174953
1427647350247,0.000175867
1427647410247,0.000176440
1427647470247,0.000173718
1427647530247,0.000173551
1427647590247,0.000174516
1427647650247,0.000176307
1427647710247,0.000174277
1427647770247,0.000174796
1427647830247,0.000173899
1427647890247,0.000172162
1427647950247,0.000173202
1427648010247,0.000171615
1427648070247,0.000172963
